Theta_e
351 353 352 352 352 351 351 352 354 355 358 358 355 354 356 357 358 359 355 357 358 355 353 351 350 350 349 350 350 351 352 352 353 354 354 355 357 360 362 361 360 360 360 360 360 359 360 359 358 357 357 357 356 356 356 356 355 356 356 355 356 356 356 356 357 357 357 357 357 357 357 357 357 357 356 357 357 356 355 356 356 355 355 354 354
352 350 348 351 352 351 350 352 353 356 357 355 359 359 356 357 358 358 357 358 357 357 361 351 348 349 348 348 349 351 352 351 352 353 354 355 356 360 363 362 361 361 360 360 360 360 360 360 359 358 357 357 357 358 356 357 357 357 357 357 357 357 357 357 357 357 357 358 358 358 357 357 357 357 357 358 357 356 356 356 356 355 355 354 353
354 352 350 350 351 351 351 356 357 356 357 357 358 359 358 357 359 357 355 355 357 358 358 350 348 349 351 348 348 350 351 352 352 353 354 353 355 357 362 363 362 361 360 361 360 360 360 360 360 359 358 358 357 357 357 357 358 358 358 358 358 358 358 357 357 358 358 358 358 358 358 358 358 357 357 357 357 356 356 357 356 355 355 354 354
354 350 349 349 350 350 352 356 356 356 359 357 358 359 358 358 360 361 358 358 358 357 357 354 347 347 348 347 348 349 350 351 352 353 353 353 354 356 356 360 362 362 362 361 361 361 360 361 359 360 358 358 358 358 358 357 357 358 359 359 359 359 359 359 359 358 358 359 359 358 358 358 358 358 358 357 356 357 356 357 356 356 355 354 354
358 353 351 347 351 349 355 358 354 360 361 360 359 359 359 360 359 361 361 361 358 356 359 350 344 345 345 345 345 346 348 349 349 351 352 353 354 355 356 358 358 362 362 362 362 362 361 361 361 360 360 359 359 359 359 358 359 359 359 359 359 359 359 358 358 358 359 359 359 359 358 358 357 357 357 357 357 357 357 357 356 356 355 355 354
361 358 357 351 354 353 353 354 356 356 362 361 360 358 357 358 360 359 363 359 356 356 353 352 345 345 344 344 345 345 344 344 347 350 351 352 354 355 355 356 357 357 359 363 362 362 362 362 362 361 361 361 360 360 360 360 360 359 360 360 359 359 359 360 360 359 359 359 359 359 358 358 357 358 358 357 357 357 357 357 357 356 355 354 354
362 357 362 356 356 355 354 357 357 360 362 364 359 356 360 357 360 356 356 354 354 356 355 351 346 348 345 352 352 355 351 343 345 349 351 352 354 354 354 355 356 356 358 358 364 363 363 363 363 363 362 362 362 362 362 362 361 361 361 361 361 361 361 360 361 361 360 360 360 360 360 360 360 359 359 358 358 358 358 358 357 357 356 356 355
364 364 359 358 358 357 360 361 362 365 363 364 365 358 357 357 357 356 352 354 356 353 352 352 346 348 352 349 352 358 354 348 346 346 351 353 353 353 353 354 355 354 359 356 357 360 363 363 364 363 363 363 363 363 363 363 362 362 362 362 362 362 363 362 361 361 361 361 362 361 361 362 362 362 362 362 361 362 361 361 360 360 359 359 358
364 363 357 357 360 358 359 361 364 364 363 362 362 360 357 357 355 357 356 352 354 351 350 351 350 348 350 349 351 359 353 352 351 348 351 350 352 354 354 354 356 363 358 354 355 356 362 364 364 365 364 364 364 364 364 364 363 363 363 363 363 363 362 363 362 362 362 362 362 363 363 363 363 363 362 362 363 363 363 363 362 361 360 361 360
362 363 361 363 361 358 358 361 364 363 361 360 358 358 359 357 355 357 357 354 351 352 348 350 353 347 348 348 350 356 351 354 355 365 348 349 349 351 353 355 358 358 358 355 355 355 356 362 366 365 365 365 364 364 364 364 364 364 364 364 364 364 364 364 363 363 363 363 363 364 364 364 364 364 364 364 364 364 364 364 363 363 362 362 362
363 364 364 361 360 359 359 361 364 362 360 358 357 357 358 359 356 357 363 359 355 357 353 350 355 351 347 348 351 356 351 354 359 354 348 351 348 352 352 351 357 358 358 357 357 356 355 356 358 360 362 366 366 366 365 365 365 365 365 365 365 365 365 365 365 365 365 365 365 365 365 365 365 365 365 365 365 365 364 364 364 364 363 363 363
360 361 362 360 359 358 359 361 361 360 357 355 355 355 355 356 356 358 360 362 362 358 355 355 358 350 355 350 353 351 352 356 349 348 353 348 349 352 349 350 350 352 356 357 358 358 356 354 357 354 356 360 365 367 367 367 367 367 367 367 366 366 366 366 366 366 366 366 366 367 366 366 366 366 366 365 365 364 364 364 364 364 363 363 363
363 363 362 366 360 358 358 358 360 361 358 353 353 357 361 361 363 362 358 354 355 356 354 356 352 346 348 352 347 351 354 355 346 348 349 347 346 348 348 350 349 349 350 354 358 359 357 354 352 352 353 354 357 366 368 368 368 368 368 369 368 368 368 368 368 368 367 367 367 367 366 366 366 366 366 366 365 365 365 364 364 364 364 363 363
364 363 363 359 358 358 358 358 359 359 360 357 357 364 362 362 361 357 360 354 352 357 354 354 345 343 340 340 343 345 350 348 348 348 346 344 343 344 347 348 348 347 349 351 358 359 359 357 356 354 354 355 356 356 358 361 365 368 369 369 370 370 368 368 368 368 368 368 368 367 367 366 366 366 366 366 365 365 364 364 363 364 363 363 363
364 365 362 361 359 359 359 359 358 363 360 358 356 359 360 360 358 358 354 356 356 357 352 352 343 347 348 340 336 336 343 347 345 346 346 342 341 342 346 345 347 345 342 341 349 356 359 358 359 357 357 358 359 357 354 359 359 366 366 366 367 369 370 370 369 369 369 369 368 367 366 366 365 365 365 365 365 365 365 364 363 363 363 363 363
364 365 363 362 361 360 360 360 359 362 359 358 358 358 360 360 356 358 356 351 351 349 355 352 348 348 335 336 335 336 330 332 338 343 345 343 339 339 343 343 343 342 341 338 341 350 352 352 355 357 358 359 360 358 358 357 362 368 370 369 366 364 367 369 369 368 367 367 367 366 365 365 365 365 365 365 365 365 364 364 363 363 363 363 362
363 362 362 361 361 360 360 362 360 361 362 361 359 360 360 360 358 357 356 352 345 346 350 350 352 351 350 344 335 332 332 332 333 339 340 336 335 336 343 340 340 343 342 342 346 347 347 347 350 350 352 353 357 358 359 362 365 371 372 376 373 367 366 368 369 366 366 366 365 365 365 365 365 365 365 364 364 365 364 363 363 363 362 362 360
362 362 361 363 362 361 360 361 361 362 362 360 359 360 361 358 358 356 357 357 351 343 345 353 350 357 354 348 340 332 331 335 334 327 342 349 336 337 339 336 339 341 343 343 343 344 350 349 349 350 352 354 351 352 356 363 369 368 370 369 376 372 369 366 368 367 365 364 364 364 365 365 365 364 364 364 364 364 363 362 362 361 360 358 354
362 363 364 364 362 361 361 361 363 362 368 361 360 359 360 360 361 359 362 363 359 357 343 344 350 353 352 349 347 349 347 337 331 345 327 333 347 333 335 337 341 340 341 344 339 342 347 350 351 350 350 353 352 353 357 366 371 368 374 374 372 373 371 367 366 364 363 363 364 365 364 364 365 364 363 363 363 363 361 361 360 358 356 354 352
361 362 364 365 363 362 362 363 363 362 365 363 359 360 360 362 362 364 363 366 358 351 352 349 342 350 355 348 349 352 344 343 345 340 336 334 331 339 337 336 339 338 341 341 337 339 343 347 349 349 348 351 354 359 364 362 360 361 365 365 369 368 366 363 363 362 362 364 365 363 364 364 364 363 363 363 362 361 360 358 356 356 355 353 351
361 361 363 364 366 362 363 364 361 362 367 364 363 360 360 358 357 359 355 357 363 361 360 357 350 349 346 347 351 349 346 345 343 344 343 333 335 333 331 334 336 339 337 337 338 338 343 344 347 349 351 352 360 361 365 363 358 354 361 364 366 365 364 362 361 362 363 363 362 363 364 363 363 364 362 362 360 359 357 356 355 353 351 350 349
360 361 362 364 365 365 365 363 360 361 366 362 362 359 362 361 360 361 357 355 365 356 356 358 360 354 353 356 344 347 345 347 342 339 340 337 332 334 335 330 330 340 341 335 337 337 337 342 348 349 350 360 359 358 361 362 359 358 358 365 368 367 366 363 361 362 361 360 361 364 364 363 363 362 361 358 357 356 355 354 353 352 351 347 346
360 361 364 364 363 366 365 363 361 363 366 359 360 359 364 360 361 361 361 360 357 357 360 362 363 357 352 353 349 349 344 343 340 341 338 338 336 337 338 339 329 331 338 341 342 337 337 340 344 349 355 357 359 359 356 358 364 361 360 361 363 365 364 364 362 362 357 358 360 363 363 362 362 360 357 356 356 354 353 351 351 349 347 345 345
358 360 361 363 362 361 365 362 361 363 361 359 360 361 361 360 359 359 359 360 354 362 361 356 354 353 352 351 348 350 348 344 343 345 339 342 336 334 338 339 335 334 343 337 337 341 345 343 349 355 356 355 358 365 363 359 360 364 361 361 360 364 363 364 363 360 357 355 355 359 361 361 359 356 355 355 352 351 350 349 348 346 344 344 345
356 357 358 360 362 360 361 360 360 361 362 363 366 364 363 359 360 359 360 358 358 359 358 357 356 352 346 350 348 346 342 342 341 341 343 350 340 335 343 343 339 339 337 329 329 339 346 349 349 352 359 362 364 365 363 359 355 361 362 360 359 363 363 364 361 358 357 355 359 361 360 359 356 353 353 352 350 349 348 346 344 343 343 344 344
356 356 358 358 362 363 363 362 360 360 366 366 367 366 367 363 359 357 359 359 359 359 356 357 356 357 355 351 351 348 346 345 338 339 338 341 339 337 340 342 343 343 342 333 335 335 340 352 352 351 352 359 361 366 361 362 359 361 362 358 356 357 362 361 363 358 357 356 357 359 359 358 355 354 352 351 350 348 346 344 343 343 343 343 343
358 359 360 358 360 362 362 363 363 365 368 368 369 367 367 365 369 364 362 362 362 360 357 357 356 354 354 353 352 352 349 351 347 349 350 347 347 347 341 334 338 345 342 341 337 336 338 344 353 356 353 360 365 366 361 357 357 362 364 358 356 356 358 359 360 359 357 356 357 356 357 357 355 353 351 350 349 348 345 343 342 341 341 340 340
361 359 362 361 360 361 363 364 366 366 366 366 366 365 365 365 364 365 358 368 360 361 358 357 355 356 353 353 361 355 351 353 353 353 354 356 354 351 350 342 335 335 341 340 342 340 347 347 353 358 359 359 362 365 368 359 347 361 367 360 357 355 355 356 357 356 354 354 355 355 355 355 353 352 351 349 347 345 342 341 340 340 339 338 339
360 361 361 358 361 362 360 363 365 365 365 365 365 366 364 363 363 363 360 363 361 361 360 359 361 359 354 351 350 353 354 355 351 354 361 355 357 352 351 347 344 338 337 334 338 341 344 346 349 354 361 362 359 361 364 356 353 359 363 364 358 356 352 351 354 351 351 352 353 352 353 353 351 350 348 346 343 341 340 339 339 338 336 336 336
357 359 357 360 360 367 359 360 364 364 364 365 365 365 365 362 362 363 364 362 362 363 363 362 360 359 359 355 351 352 352 350 348 349 360 358 354 355 354 358 353 344 341 336 337 345 344 349 352 355 355 361 362 361 364 362 355 357 365 365 361 359 349 349 352 350 350 351 350 350 352 351 350 347 343 341 340 339 337 337 336 336 335 333 334
354 354 354 356 361 360 358 359 360 362 362 362 363 363 366 363 362 363 364 363 362 362 362 363 361 360 357 357 355 349 351 351 351 351 357 359 357 358 356 363 358 351 351 344 334 342 350 345 348 353 356 357 360 357 365 362 356 357 363 366 364 358 351 351 351 350 349 347 345 345 346 344 342 340 339 338 338 336 335 335 333 334 332 331 331
351 356 354 354 358 357 360 358 359 359 360 361 362 362 364 363 362 363 363 363 361 362 364 363 362 359 358 356 356 358 359 356 354 356 360 357 354 352 350 352 360 354 355 347 340 344 352 352 350 353 351 348 350 355 359 362 362 359 361 367 367 359 353 354 352 349 346 344 343 341 339 337 337 338 340 340 337 335 335 333 331 331 330 329 328
351 357 353 354 355 356 355 356 354 356 356 356 360 360 361 361 361 361 360 362 361 360 361 361 362 360 358 356 356 358 358 355 355 356 355 356 355 353 357 356 353 351 347 345 340 342 347 356 356 354 354 354 350 355 349 355 362 360 360 367 362 357 357 356 354 348 344 341 339 337 336 335 336 339 340 339 338 335 334 333 330 329 328 326 325
350 351 352 354 354 355 354 353 353 353 355 354 356 359 358 360 359 362 362 361 360 359 360 358 358 359 361 357 358 360 359 353 355 355 354 350 352 352 350 350 348 352 353 348 344 342 342 347 349 355 357 359 350 357 358 356 355 363 361 364 362 359 360 358 354 351 345 340 336 334 334 334 335 337 339 339 338 337 334 332 329 327 326 324 323
351 349 350 350 353 353 353 353 353 353 355 355 355 358 357 358 357 357 357 357 360 359 359 358 359 359 356 357 359 359 363 356 355 354 354 352 350 349 349 350 348 348 349 352 348 346 345 346 352 352 350 357 358 355 357 360 359 361 356 356 363 363 365 362 356 353 344 340 335 333 333 333 334 335 335 336 337 335 334 330 328 325 324 322 322
350 350 348 348 349 352 352 352 352 351 355 355 355 354 357 357 357 356 355 354 354 357 358 358 358 357 356 355 357 359 358 355 354 353 353 352 351 350 352 352 349 348 348 350 350 347 347 346 349 351 355 353 354 359 361 359 357 357 357 357 358 360 364 365 359 355 345 339 336 334 333 332 332 332 332 334 333 330 328 325 324 323 323 323 321
347 349 350 348 347 352 352 350 352 349 354 354 352 352 355 357 357 356 355 355 355 353 355 355 363 356 355 354 355 355 355 354 354 355 354 352 352 351 349 349 352 352 354 353 353 351 348 348 350 353 355 356 359 360 360 358 356 356 358 360 359 357 360 365 363 357 344 338 337 334 332 332 332 331 330 330 330 326 325 324 323 324 324 322 321
345 346 349 349 348 349 351 350 352 351 351 353 351 350 350 353 356 356 356 354 354 355 354 353 354 356 355 354 354 354 353 353 353 354 353 352 352 351 349 349 350 351 349 349 352 351 352 350 350 349 354 357 356 355 357 357 355 354 355 357 356 356 357 359 360 348 346 341 337 335 333 332 332 329 329 329 327 325 325 324 323 323 322 320 317
346 344 345 349 350 349 351 351 350 353 351 352 352 351 349 349 351 354 354 354 353 352 353 354 354 354 354 354 353 353 353 353 352 352 352 352 353 351 351 349 348 350 352 350 348 347 349 349 350 354 353 354 355 352 355 358 360 358 354 351 351 356 359 360 351 349 345 341 339 338 336 334 334 331 324 324 325 324 324 324 324 322 321 318 315
347 346 344 345 349 351 351 351 350 351 352 352 351 353 352 351 350 350 351 352 352 351 350 350 351 351 351 352 352 352 353 352 353 353 352 351 353 352 351 351 351 350 348 348 350 351 349 350 349 349 350 352 352 357 359 358 352 350 355 354 350 351 352 356 358 348 345 343 340 338 337 335 333 330 324 324 326 325 325 325 326 326 324 321 318
349 347 346 345 345 349 352 351 350 350 351 353 353 353 354 353 352 350 349 349 350 350 350 349 349 349 349 349 349 350 353 365 360 359 359 360 353 351 351 351 350 350 350 349 348 348 349 352 351 352 350 352 353 353 350 348 346 346 348 352 353 353 353 355 359 359 349 343 343 341 337 336 333 331 327 323 323 327 326 327 325 329 327 322 319
347 347 346 343 345 345 348 351 350 350 350 352 355 349 351 355 352 352 351 349 348 348 348 348 347 348 349 348 350 364 363 360 355 353 351 358 364 356 352 352 351 350 350 349 348 347 347 345 346 348 347 347 347 347 346 346 348 350 350 352 352 353 352 351 353 358 361 348 345 342 340 339 336 332 328 325 326 330 323 324 322 323 326 324 321
351 350 349 344 341 345 345 348 350 350 350 351 346 337 338 344 354 352 350 347 347 347 346 346 346 346 346 347 347 356 362 365 360 351 348 347 352 359 361 364 363 353 350 351 351 351 349 348 348 348 347 346 347 349 349 349 350 351 349 349 350 350 349 346 345 348 358 359 352 349 350 343 339 334 331 329 329 328 325 321 326 327 324 324 322
351 352 350 349 348 343 343 346 348 350 350 348 337 334 335 336 345 354 352 350 347 345 346 345 345 346 345 345 345 346 346 346 345 351 353 349 345 348 351 354 359 363 361 355 352 351 351 350 350 350 349 348 348 348 348 348 347 347 350 350 348 347 346 345 341 342 346 359 352 349 352 351 341 340 337 336 334 331 328 324 325 327 325 323 322
352 349 348 349 348 351 347 341 344 348 349 342 333 332 333 333 334 346 352 351 348 345 343 344 344 344 345 345 345 345 345 355 356 349 348 351 347 342 344 346 350 351 346 348 354 357 354 352 350 349 351 350 349 349 351 350 350 345 343 343 344 343 342 340 339 339 344 354 349 349 349 353 343 344 343 344 341 337 332 328 326 326 325 323 322
352 350 350 349 348 348 349 349 343 344 346 343 330 328 328 329 331 337 350 350 349 347 344 342 343 343 342 343 343 344 343 344 344 342 343 350 351 349 347 346 347 352 350 341 341 346 355 357 354 352 353 354 352 352 355 354 351 349 346 345 345 343 343 343 344 346 350 365 355 349 348 351 354 356 354 356 349 342 335 329 325 324 325 322 321
351 350 350 349 349 349 350 351 351 347 346 338 328 325 324 324 328 333 347 350 348 347 346 343 341 341 341 343 342 342 342 343 344 345 341 342 349 352 349 347 347 348 349 350 350 347 347 349 353 356 357 357 357 356 356 357 357 354 351 348 347 346 346 346 349 350 355 357 356 350 345 349 346 349 351 352 347 343 335 325 324 324 323 320 320
352 352 351 351 350 350 350 351 353 352 353 337 329 323 320 321 325 337 343 346 347 346 345 344 344 342 342 342 342 342 341 342 349 346 350 346 345 350 351 350 349 349 350 352 343 345 352 349 348 349 351 353 347 356 357 357 356 356 357 355 353 350 349 348 347 349 349 353 354 350 344 345 349 348 348 341 335 333 327 326 324 323 321 319 320
351 351 350 351 351 352 352 355 354 352 352 342 331 326 318 317 322 333 339 343 346 346 345 345 344 344 345 347 347 347 347 345 345 335 336 349 346 348 351 352 352 352 351 353 341 334 335 334 333 334 334 333 332 331 332 335 348 351 351 350 350 351 345 344 345 345 347 351 352 353 349 345 348 346 347 334 332 329 324 322 322 321 319 318 318
352 352 352 352 353 353 352 353 356 353 353 346 324 319 322 318 324 331 336 339 342 345 346 347 346 345 346 357 360 347 347 349 342 334 333 342 346 346 350 352 352 352 352 355 356 351 332 329 329 331 331 332 332 331 332 332 332 340 346 344 346 350 349 346 345 346 348 348 348 349 340 339 343 346 345 336 334 330 325 322 320 320 320 316 315
354 353 354 352 353 353 354 354 360 356 353 345 329 331 330 325 325 332 336 339 339 342 344 346 347 348 347 355 363 357 352 347 333 330 330 341 348 348 347 348 349 351 354 357 358 358 356 351 347 344 343 340 342 341 342 336 335 347 344 346 347 344 341 342 343 342 340 342 344 344 338 335 337 341 346 336 332 335 328 323 321 319 319 319 318
Wind_Speed
4 4 1 1 1 1 1 1 1 2 2 3 2 2 3 2 2 1 2 3 5 4 3 6 5 6 6 5 6 7 6 5 6 5 4 4 4 6 9 8 8 8 7 7 6 6 6 6 5 4 4 4 4 4 4 3 3 3 3 3 3 4 4 4 5 5 6 6 6 7 6 6 6 6 6 6 6 6 5 5 5 6 4 4 4
5 4 3 1 1 1 1 2 3 3 2 3 2 4 3 1 1 2 2 3 2 2 1 1 3 3 5 5 7 7 6 6 6 6 5 4 4 4 10 8 8 7 7 6 6 6 6 6 6 5 5 5 5 5 5 5 4 3 4 5 5 6 6 6 6 6 7 7 7 7 7 6 6 6 6 6 6 6 6 6 6 6 6 5 5
4 5 4 3 2 3 3 3 3 4 3 2 1 1 2 2 2 1 2 2 3 4 2 2 3 5 5 6 6 7 7 6 6 7 7 5 5 3 4 9 8 8 7 7 6 6 6 6 7 6 6 6 6 6 5 6 6 6 6 6 7 7 6 6 6 7 7 8 7 7 7 6 7 7 7 7 7 7 7 6 6 7 6 6 6
4 0 2 2 1 3 4 4 4 4 4 3 2 2 3 2 2 1 2 2 3 4 2 2 5 5 4 6 6 6 7 7 7 7 6 6 5 4 3 4 8 8 8 7 7 7 7 7 7 7 7 7 7 7 7 7 7 7 7 8 8 7 7 7 8 8 8 8 7 7 7 8 7 7 8 7 8 7 7 7 7 7 7 7 7
7 5 5 5 4 7 6 3 4 3 3 4 3 3 2 1 1 1 2 3 4 5 5 4 5 4 5 6 6 7 7 7 7 7 7 7 6 5 5 3 3 8 9 8 9 9 8 8 8 8 8 9 9 9 9 8 9 8 8 9 9 9 9 8 8 8 8 7 7 8 8 8 8 8 8 8 8 8 8 8 8 8 8 8 8
6 10 12 9 9 7 4 3 3 3 2 3 3 3 2 1 0 0 2 2 3 4 2 1 3 4 3 3 4 6 6 6 6 7 7 6 6 6 6 5 5 5 5 10 11 10 10 9 9 10 10 10 10 10 11 11 11 10 10 10 10 9 10 9 9 9 8 8 8 8 8 8 9 9 9 9 9 9 9 9 9 9 9 9 9
4 5 5 7 6 5 4 5 4 4 4 4 4 3 3 3 1 0 2 2 3 4 1 1 2 1 3 3 2 2 3 6 7 6 7 6 6 6 6 6 6 6 6 5 8 11 12 12 12 11 12 12 12 12 12 12 12 12 12 11 11 11 10 10 10 9 9 9 9 9 9 10 10 10 10 10 10 10 10 10 10 10 10 10 10
3 3 3 5 6 6 5 4 4 3 4 2 3 4 3 2 1 1 0 2 3 4 4 4 3 3 3 3 1 0 1 5 7 6 7 7 6 7 6 6 6 6 7 5 6 7 13 13 13 12 13 13 13 13 13 13 13 13 13 12 12 12 11 10 10 10 9 9 9 9 9 10 10 11 11 11 11 11 11 11 11 11 11 11 11
3 3 4 3 4 5 4 3 2 4 4 2 3 5 4 3 0 0 1 2 2 3 2 3 3 3 3 4 3 1 3 2 2 5 7 7 7 7 7 7 7 8 6 6 6 5 9 14 13 14 14 14 14 14 14 14 14 13 13 13 13 12 11 10 10 10 10 10 10 10 10 10 11 11 11 11 12 11 10 11 12 13 12 11 12
4 3 4 2 4 5 3 3 3 2 2 3 3 2 3 4 3 2 2 1 2 2 2 3 1 4 3 4 4 4 3 3 3 3 6 7 8 8 8 8 7 7 7 6 6 6 5 9 14 14 14 14 14 13 14 14 14 14 14 14 13 13 12 10 10 10 10 10 10 11 11 11 11 11 11 12 12 12 11 11 11 12 13 12 12
4 3 3 5 5 4 4 3 2 3 2 1 2 3 3 3 3 3 3 3 3 2 1 1 2 1 5 5 3 3 5 4 5 4 6 6 7 7 6 7 8 7 7 7 6 6 6 5 6 6 8 14 14 14 14 14 14 14 14 13 13 13 12 11 11 11 11 11 11 11 11 11 11 12 12 12 12 11 11 12 13 14 15 13 12
4 3 4 5 5 4 3 3 2 3 3 3 3 2 2 3 3 3 3 2 2 1 1 2 1 3 4 3 3 4 3 3 4 4 5 5 6 5 6 5 6 7 7 7 7 7 6 6 6 6 6 8 14 14 14 14 13 13 13 13 13 12 12 11 11 10 10 11 11 10 10 10 11 12 12 12 11 11 11 11 12 14 15 12 11
4 4 5 5 5 4 4 3 2 3 3 3 3 2 3 2 2 1 2 1 1 0 1 0 2 1 2 1 3 3 3 4 5 5 5 6 6 6 7 6 7 6 6 7 8 7 7 6 6 6 6 6 7 12 14 13 12 12 12 12 13 12 12 11 11 10 10 10 11 10 10 9 10 10 9 10 10 10 10 10 10 11 12 12 11
4 4 4 5 5 4 4 4 3 4 3 2 2 2 2 3 3 1 0 1 1 1 2 1 1 1 1 1 2 2 3 3 5 5 6 5 5 5 5 8 8 7 6 8 8 8 7 6 6 6 6 6 6 6 7 8 10 13 13 12 12 12 12 12 11 10 10 11 10 10 9 8 8 8 9 9 9 9 9 9 9 9 10 11 10
5 4 5 4 5 5 5 4 4 4 4 4 3 2 2 1 3 3 1 2 1 1 3 2 1 2 1 1 1 0 2 2 3 5 6 5 5 5 5 7 9 6 7 8 8 7 6 6 7 7 6 6 6 6 6 6 8 11 12 13 12 12 12 12 11 10 10 10 9 8 7 7 7 9 9 8 9 9 8 8 8 8 7 9 8
4 4 4 4 5 5 4 4 4 4 5 4 3 2 0 1 2 2 2 0 1 3 4 2 3 4 0 1 2 3 1 4 6 5 8 8 6 5 5 7 8 5 5 6 6 8 7 7 8 7 7 7 7 6 6 6 9 12 12 11 12 11 11 10 10 9 9 9 8 7 6 6 6 7 8 8 8 8 8 8 7 7 7 8 8
4 4 4 4 4 3 3 4 4 3 2 3 4 2 2 2 2 2 2 2 3 2 2 3 3 4 3 0 1 1 2 3 2 3 4 5 6 7 7 9 6 6 5 5 5 7 6 5 6 6 5 6 6 6 5 5 5 5 6 8 9 10 8 8 8 9 9 9 8 6 5 5 5 6 7 8 8 7 6 6 6 6 6 6 8
5 4 4 3 3 3 3 3 3 3 2 2 2 0 2 3 3 3 3 3 3 1 0 0 1 2 1 3 1 2 1 2 3 0 4 1 4 6 8 7 5 8 5 4 5 6 6 6 4 5 5 5 6 4 3 1 2 2 3 4 7 7 6 7 7 7 7 7 6 6 6 4 4 5 6 7 7 6 6 5 6 6 7 7 7
5 4 4 3 3 3 3 3 3 3 2 3 2 3 2 3 1 2 4 2 2 1 2 2 1 1 2 3 2 1 3 0 0 0 2 2 1 3 3 4 5 4 5 4 5 6 5 5 5 6 6 6 6 4 1 3 4 4 4 3 3 3 4 4 5 6 5 5 5 5 5 4 4 4 5 5 6 6 6 6 6 7 7 7 7
6 5 5 3 3 3 3 3 3 4 2 2 3 2 2 1 2 1 1 2 2 3 1 2 1 2 1 3 5 5 4 2 2 3 2 1 0 2 1 4 4 5 5 5 5 6 6 4 7 6 6 6 3 2 5 4 4 3 3 4 3 3 3 4 4 4 3 5 5 4 4 3 4 4 4 5 6 6 6 6 6 6 7 7 8
7 6 5 4 4 3 3 2 3 3 3 3 2 2 3 2 2 0 0 1 1 1 1 1 2 2 1 3 3 2 4 2 1 2 1 1 2 1 2 2 3 2 4 6 5 5 7 8 7 6 5 4 2 3 5 5 4 3 4 5 5 3 3 4 4 4 3 4 4 3 2 3 3 4 5 5 5 6 6 6 6 6 8 8 8
6 6 5 5 4 3 3 3 2 2 2 3 3 3 2 3 3 2 2 1 1 0 0 1 1 2 1 1 1 2 3 2 1 1 1 1 0 2 2 4 3 2 4 5 7 5 5 7 6 5 2 1 3 5 5 5 3 3 4 6 5 4 3 3 4 3 2 3 2 2 3 3 4 5 5 5 6 6 6 6 6 7 8 9 10
5 5 6 5 5 4 4 3 2 2 1 3 2 3 2 4 3 3 2 2 1 1 1 0 1 1 2 0 2 2 3 0 2 2 1 1 2 3 2 1 2 4 0 4 5 5 2 6 7 4 4 4 4 4 4 4 5 4 7 7 6 3 3 3 2 2 1 1 2 3 4 5 5 5 5 5 5 6 5 5 6 8 9 10 11
4 4 5 5 4 4 3 3 3 2 3 3 3 2 3 3 3 3 2 2 2 0 0 1 3 2 2 3 4 4 3 3 4 3 2 2 2 2 1 3 1 1 1 0 0 1 2 4 6 6 5 5 4 4 3 4 3 8 6 7 5 4 2 2 2 1 1 2 1 3 5 5 5 5 5 5 5 5 5 5 7 9 10 11 11
4 5 4 5 5 4 4 4 4 4 3 2 2 2 3 4 4 3 2 2 2 2 1 2 3 3 4 2 3 4 5 5 3 3 1 3 2 0 1 1 1 2 2 1 1 1 4 6 6 6 5 4 3 4 4 4 3 5 7 5 7 4 3 2 1 1 2 2 2 3 5 5 5 5 5 4 4 4 5 7 8 9 10 11 11
5 5 6 5 6 5 5 5 4 3 3 3 3 2 2 3 4 4 3 3 2 2 2 4 4 3 2 3 1 3 3 4 4 3 2 1 1 1 0 2 1 2 2 1 2 2 1 1 4 4 5 4 4 3 3 5 4 6 8 5 6 6 5 4 3 2 3 3 3 3 3 5 5 4 4 3 3 4 6 8 9 10 11 11 11
5 5 6 4 7 5 5 4 5 4 3 3 2 1 2 2 1 2 3 3 4 3 3 3 5 4 3 3 4 3 3 2 5 5 3 3 2 2 3 3 4 3 2 2 3 0 3 2 1 1 3 3 3 3 4 4 5 7 8 5 4 6 6 6 5 4 4 4 3 3 4 5 5 4 3 3 4 6 7 8 9 10 11 11 11
3 5 5 5 7 5 4 5 4 4 3 3 3 3 3 2 1 1 2 1 3 2 4 4 5 4 4 3 3 3 3 3 2 1 0 4 3 4 4 5 2 2 3 3 3 2 1 1 1 1 3 3 3 4 4 7 5 9 9 4 5 4 7 7 6 6 5 5 4 4 4 5 5 4 3 2 3 5 7 8 8 9 10 11 11
3 4 4 6 6 6 5 4 5 4 4 4 3 3 3 3 2 1 2 2 3 3 3 3 3 3 3 4 3 3 4 3 3 1 1 2 4 3 4 5 4 3 1 2 2 1 2 2 1 2 4 3 4 5 3 4 5 7 4 5 5 5 7 9 8 8 7 6 5 5 5 6 5 5 3 2 2 4 5 6 7 8 9 10 10
5 3 4 5 4 6 6 4 4 4 4 3 3 3 3 3 3 3 3 3 3 3 3 2 3 3 3 3 4 3 4 3 4 2 1 1 2 2 2 1 3 2 2 0 3 2 1 2 0 2 3 3 3 5 2 4 7 5 5 5 6 5 9 10 10 9 8 7 7 6 6 6 5 5 4 2 0 2 3 4 6 7 8 9 9
7 3 4 3 5 5 6 4 4 5 4 4 4 3 4 3 3 4 3 3 3 3 3 3 3 3 4 3 1 4 4 3 3 4 2 0 2 1 2 2 0 2 4 2 1 3 1 1 3 2 1 3 4 4 2 4 6 6 5 5 5 8 10 8 10 9 9 8 7 7 7 7 6 6 5 3 2 1 1 3 4 5 6 7 8
7 6 6 6 4 4 4 4 5 5 4 4 5 4 4 3 3 4 3 3 3 3 3 3 3 4 4 4 2 2 1 1 3 2 0 2 2 1 2 1 2 2 3 3 2 6 2 1 2 6 2 3 4 2 3 3 5 7 3 5 5 6 5 4 8 9 9 9 8 7 8 7 7 7 6 5 3 3 1 3 3 3 5 5 6
6 6 7 7 6 6 4 4 4 5 5 4 5 5 4 4 4 3 3 4 4 3 3 4 4 3 4 4 3 3 1 1 3 3 1 2 3 3 2 1 2 2 2 2 1 5 5 1 1 2 6 4 3 1 3 2 2 4 3 3 5 5 5 5 5 7 9 9 9 9 9 8 8 8 7 6 5 4 3 2 2 2 3 4 5
6 6 8 5 7 7 6 5 4 4 6 6 5 5 5 5 5 4 3 4 5 4 4 4 5 5 3 3 4 3 2 3 3 3 3 2 3 3 4 4 3 3 3 3 4 3 5 4 5 4 4 2 3 2 2 2 2 3 4 3 4 5 6 5 5 6 9 9 10 10 9 9 9 9 8 7 6 6 3 1 1 0 1 2 3
6 6 6 6 7 7 7 7 7 5 6 7 6 5 6 6 6 5 4 4 5 5 5 5 5 4 4 3 4 3 2 3 4 4 4 4 1 2 4 3 5 5 4 5 4 4 6 6 3 3 3 2 2 4 4 3 4 3 4 4 5 5 5 6 6 5 8 10 11 11 11 10 9 9 9 8 7 6 4 2 2 1 2 0 1
7 7 7 7 6 7 7 7 8 7 7 7 7 6 7 7 7 6 6 5 5 6 6 6 5 4 4 4 4 4 4 4 4 5 5 5 5 3 3 4 4 5 4 3 4 5 4 5 3 3 2 3 3 4 3 5 6 6 4 5 4 4 6 6 6 6 8 12 12 12 11 10 10 10 9 9 8 6 5 4 4 4 3 3 1
7 7 7 7 7 6 8 8 7 7 7 7 7 7 6 6 7 7 7 5 5 6 6 6 6 6 6 6 6 5 4 5 5 5 6 6 6 5 4 3 4 5 4 4 4 4 4 4 4 2 2 2 2 4 4 5 6 5 4 4 3 3 3 7 5 5 8 13 11 11 11 11 10 10 10 9 9 8 7 6 5 6 5 4 3
5 8 9 8 8 9 7 8 7 7 6 7 8 8 7 5 6 7 7 7 6 6 6 7 6 6 6 7 7 6 6 6 6 5 5 6 5 5 5 6 4 3 4 4 3 3 4 5 4 4 1 3 3 3 5 5 6 7 6 5 4 3 2 3 5 3 3 5 4 5 7 9 11 11 11 10 9 9 8 7 6 6 6 6 5
8 6 8 9 9 10 9 8 8 7 7 6 7 7 7 6 6 6 7 7 7 6 5 7 7 7 7 6 6 6 6 6 6 6 6 5 6 6 6 6 5 4 4 4 4 5 4 4 4 4 4 4 4 6 7 4 5 6 6 6 5 4 4 2 5 3 3 5 6 8 8 9 9 9 10 11 10 10 9 8 7 7 7 7 6
11 10 7 9 9 10 10 10 9 8 7 6 6 6 7 7 7 6 7 7 7 7 7 6 6 6 6 7 7 7 7 7 7 6 6 7 5 6 6 6 6 5 5 5 4 5 5 5 5 6 4 5 3 4 5 3 3 3 4 5 6 6 7 3 5 6 5 5 5 5 5 5 6 8 8 9 10 10 10 9 9 8 9 9 7
12 12 10 9 10 9 10 11 10 9 9 8 7 7 7 7 7 7 7 8 8 8 8 8 8 8 8 7 7 8 8 11 14 12 10 10 7 7 7 6 6 6 6 6 6 6 6 5 5 4 4 5 5 4 4 3 5 7 6 2 5 6 6 5 5 4 5 6 6 4 6 7 6 6 6 6 7 8 8 9 7 10 11 10 9
4 5 11 10 9 12 10 10 10 10 9 8 10 15 12 8 7 8 6 7 8 8 8 8 8 9 9 9 9 12 14 16 16 17 16 16 14 11 8 7 7 7 7 7 6 6 6 7 7 6 6 6 6 5 5 5 5 5 6 6 5 6 3 3 4 3 6 5 4 6 7 6 7 5 5 8 6 7 6 7 8 8 10 11 10
1 3 6 5 7 9 12 11 11 11 10 10 16 16 16 16 10 8 8 7 6 7 8 8 8 9 8 8 8 11 13 12 11 16 16 17 17 16 15 12 10 9 7 8 7 6 6 7 7 6 7 7 7 6 6 6 4 5 6 4 5 4 4 3 5 4 1 6 4 4 6 6 7 7 7 8 8 7 8 9 12 13 12 12 11
1 1 1 1 5 5 6 10 11 11 11 13 17 17 18 18 15 11 9 9 8 7 7 9 9 8 8 8 7 7 6 9 10 8 12 16 17 17 17 16 15 15 13 10 8 6 6 6 6 7 6 7 8 6 7 5 7 7 7 4 3 4 4 4 3 3 3 3 5 3 7 3 7 7 6 9 8 8 10 13 14 14 13 13 12
3 3 4 3 3 2 5 5 10 11 10 14 16 18 19 19 19 16 10 10 11 10 9 9 9 8 8 8 8 8 8 12 8 6 5 7 13 18 19 19 18 15 14 15 14 10 8 7 8 8 8 7 7 8 6 5 3 4 4 5 4 4 4 4 5 3 6 2 3 4 6 3 7 7 8 9 8 7 9 12 15 15 15 13 13
3 3 2 4 4 5 4 4 6 8 10 13 17 17 18 19 20 17 12 12 11 11 11 11 9 9 9 9 9 9 8 8 9 10 7 6 7 7 9 9 9 12 15 15 14 13 10 9 8 10 9 6 10 9 7 5 5 8 7 7 5 5 5 6 5 5 5 2 4 2 4 5 4 6 8 8 7 7 8 12 17 17 15 15 13
2 3 4 4 5 4 5 5 5 6 7 12 16 17 17 18 19 17 13 12 11 11 11 11 11 11 10 10 10 11 10 9 9 11 11 10 7 7 7 9 10 10 10 10 10 9 9 8 8 10 10 8 9 9 7 6 7 7 7 7 6 6 4 3 3 3 5 3 3 2 5 7 3 3 7 6 5 6 4 8 16 17 16 15 14
2 3 3 3 4 4 4 5 6 6 5 6 2 5 11 13 16 11 11 11 11 11 11 11 10 10 10 10 10 11 11 11 13 17 15 11 9 9 9 9 9 9 10 12 15 14 12 11 10 11 11 11 12 11 11 9 6 5 4 3 2 2 4 5 7 4 5 4 5 5 3 6 5 5 6 2 4 5 3 3 11 16 16 15 14
5 4 4 5 4 5 5 4 4 5 5 9 10 3 3 7 5 6 7 8 10 11 12 11 11 10 9 8 9 10 10 10 14 16 16 15 9 10 10 10 9 9 10 9 13 16 16 16 17 17 17 16 17 18 17 16 12 7 4 5 6 4 6 7 7 5 8 5 3 6 5 6 7 4 6 2 4 4 4 5 5 11 14 13 13
4 4 4 4 4 4 5 6 5 4 4 4 8 5 5 8 8 5 5 7 10 11 12 12 10 9 11 16 13 10 9 9 12 15 17 13 10 10 10 10 10 11 10 9 6 9 16 18 18 18 19 18 18 17 16 15 15 7 5 10 8 3 6 6 8 6 6 5 5 5 3 6 4 3 3 1 0 1 3 2 4 5 8 8 10
5 4 4 4 4 5 5 5 5 5 4 4 8 10 12 10 10 7 7 7 9 11 11 11 10 10 10 12 16 14 11 12 14 14 16 12 10 10 10 10 11 12 12 9 9 8 7 7 9 10 10 12 12 11 13 17 16 10 8 10 8 7 9 8 7 5 7 8 5 5 5 6 6 4 4 0 2 3 3 5 5 5 6 5 5
Wind_Direction
126 112 98 57 40 4 346 310 251 239 208 254 197 203 177 185 229 262 246 261 251 249 236 203 164 156 145 151 131 133 136 131 133 135 137 152 166 175 168 168 173 174 178 177 177 178 186 190 186 189 185 185 181 186 188 194 189 210 219 232 239 258 265 273 279 285 291 294 305 307 314 314 312 310 307 308 310 308 314 308 307 304 298 299 296
117 98 82 9 358 337 290 243 230 213 190 235 192 156 178 129 247 256 238 252 285 283 322 189 151 129 125 131 125 140 143 143 145 145 148 156 170 182 171 174 179 182 183 188 188 189 192 191 194 195 197 196 194 201 206 208 234 234 241 248 255 257 259 269 273 276 284 293 296 300 302 302 302 302 303 301 300 301 301 304 301 301 297 291 292
118 131 134 137 235 262 241 229 212 197 215 224 219 144 135 172 220 241 281 310 323 306 323 232 143 148 146 140 147 143 147 151 150 151 156 163 160 165 179 180 183 188 190 194 198 196 196 198 202 201 207 205 215 227 218 227 232 240 249 253 258 262 266 273 281 282 283 285 289 294 301 296 295 297 297 297 295 298 300 299 298 296 290 287 286
98 274 104 56 260 254 234 209 187 210 211 182 199 170 158 224 205 231 266 288 287 310 275 256 161 163 156 154 153 152 157 155 156 159 155 153 151 161 180 188 190 191 198 200 205 207 206 208 211 215 220 228 230 226 236 238 244 247 249 255 264 272 273 272 269 273 277 282 291 296 292 292 291 293 293 291 293 294 294 291 288 286 286 284 284
149 157 135 187 199 222 205 191 188 206 207 177 171 178 182 187 245 283 310 315 341 310 298 227 153 166 159 167 160 163 165 158 155 155 155 156 157 163 174 182 196 200 204 208 211 215 215 216 224 223 225 229 235 238 244 245 248 252 253 256 256 258 264 268 271 276 281 283 284 285 289 289 289 288 288 288 287 287 284 281 282 282 280 282 280
170 164 169 160 182 191 182 189 193 192 152 146 168 177 171 115 98 18 291 298 285 266 250 62 189 158 159 153 148 166 168 160 153 164 156 156 160 165 175 179 188 203 207 212 215 218 220 223 225 230 231 235 237 239 242 247 251 253 256 261 267 270 270 272 275 278 280 283 283 284 286 284 284 285 284 282 281 282 281 278 278 279 278 277 275
174 166 181 158 160 176 179 186 187 183 154 149 150 160 124 147 199 56 352 305 283 286 289 249 147 119 146 116 110 91 150 154 167 161 153 160 163 173 178 182 189 194 204 209 217 219 221 224 226 230 234 236 241 243 245 248 251 253 254 257 260 265 268 271 272 275 276 277 278 277 275 278 281 282 283 285 285 283 282 279 276 278 280 280 277
161 164 156 166 160 153 171 156 164 144 138 163 138 144 144 130 117 119 58 310 337 318 312 244 159 115 98 106 139 80 78 115 157 150 162 162 171 178 181 184 189 193 196 200 209 220 222 225 227 231 235 238 241 244 247 249 251 254 256 259 261 263 266 268 270 272 272 273 275 274 273 274 275 277 279 279 281 283 283 282 280 280 280 280 279
156 152 154 162 134 131 137 129 120 120 131 131 127 151 147 119 22 224 179 241 281 277 271 168 145 150 141 146 180 126 128 147 167 154 162 167 176 183 180 191 192 196 190 197 203 215 223 225 229 230 234 238 240 244 247 250 253 255 256 257 259 262 264 264 266 267 268 270 272 273 275 276 277 278 280 281 283 284 282 282 283 284 281 277 274
148 155 159 149 130 134 132 115 109 126 119 120 142 117 123 146 180 205 202 233 283 313 297 49 190 170 156 156 172 162 184 173 245 171 163 165 181 185 186 189 193 195 192 191 198 208 215 223 227 232 234 237 241 244 246 248 250 252 253 254 256 259 261 261 261 263 266 269 271 274 275 276 277 279 281 285 287 287 284 282 281 280 283 279 272
153 153 139 118 116 127 126 137 129 133 117 98 127 126 149 178 170 195 205 212 208 246 96 242 6 206 151 166 172 166 203 190 194 159 185 173 183 184 178 182 193 196 189 189 194 201 209 210 219 225 232 236 239 241 243 245 247 248 250 252 252 254 257 259 260 261 265 267 270 272 274 276 279 282 284 286 288 285 282 282 284 285 288 285 282
152 154 128 126 120 129 125 102 117 116 113 107 127 140 168 171 189 180 210 235 226 282 10 329 355 64 108 141 167 172 208 202 200 211 201 197 206 172 187 192 195 196 182 191 189 201 203 208 210 220 227 236 237 239 241 243 245 246 247 249 250 252 255 257 260 262 265 270 273 274 274 274 278 283 288 290 286 284 283 283 283 286 292 293 289
154 148 145 135 124 130 119 95 102 108 111 144 173 198 228 195 167 144 115 72 309 352 308 197 76 28 5 334 212 221 225 190 211 228 230 211 209 174 179 183 214 210 187 176 187 197 205 200 208 217 228 229 237 238 238 241 244 245 245 246 249 250 252 255 259 264 267 270 274 274 275 278 283 289 288 287 286 287 288 287 285 289 294 296 293
159 158 140 130 133 139 130 133 136 130 129 162 185 199 227 226 175 100 289 141 199 232 272 83 32 146 208 326 303 311 254 219 227 242 234 227 206 198 159 185 211 210 199 163 181 197 202 201 200 216 225 224 231 236 238 240 243 244 243 244 246 248 249 251 255 260 264 269 275 277 282 290 297 300 298 296 296 296 297 295 293 294 298 301 301
164 156 143 146 150 151 146 151 153 150 155 179 192 184 173 195 169 149 104 13 324 279 234 176 189 199 154 92 293 303 317 299 292 267 253 227 210 200 168 188 205 194 201 166 173 192 203 194 202 213 216 224 229 225 227 228 231 235 238 242 244 247 250 251 256 263 269 276 283 292 304 314 313 310 308 304 303 304 307 309 310 310 308 310 304
163 155 152 156 155 154 154 152 165 171 165 169 190 162 142 100 110 100 100 46 283 262 206 209 180 106 30 173 224 143 324 268 224 243 237 240 208 198 174 186 195 197 188 187 157 182 203 184 199 207 209 214 219 222 220 223 230 233 236 240 241 245 249 256 263 270 278 285 294 309 323 320 314 312 315 314 314 320 321 321 322 322 321 323 324
168 160 151 154 152 155 154 156 145 170 159 152 159 171 207 200 147 126 149 162 258 223 270 180 135 148 150 77 10 23 228 242 204 251 209 194 193 188 172 176 177 179 189 222 162 190 188 176 184 186 199 212 217 214 213 221 228 227 232 235 237 240 245 252 261 276 284 292 307 323 324 323 324 319 325 327 330 332 334 337 338 338 341 356 20
169 162 160 156 161 158 153 159 155 178 196 170 162 316 263 195 194 168 208 228 214 194 49 251 164 221 163 174 162 183 219 273 85 208 314 39 152 165 163 172 176 165 183 195 187 181 179 177 178 191 211 223 231 239 241 205 188 176 178 224 234 238 243 249 260 278 286 301 323 335 339 339 329 333 339 341 347 354 355 1 360 9 23 32 33
167 158 161 164 152 153 166 178 179 180 175 143 161 217 234 219 234 196 226 197 81 69 201 207 358 347 300 299 246 184 176 69 355 43 28 322 72 146 186 182 173 162 190 211 191 178 183 169 182 196 213 226 232 239 77 136 132 136 133 171 220 231 234 262 263 276 297 329 344 351 355 346 339 351 354 5 10 17 16 20 24 28 30 34 38
157 160 161 157 151 163 173 195 192 178 176 181 197 222 220 262 227 217 265 76 117 113 35 36 89 282 13 6 15 348 19 60 132 138 168 111 279 330 181 203 184 191 191 209 216 169 174 181 191 202 214 232 227 160 149 123 132 143 157 167 191 212 244 251 269 283 322 350 4 9 4 352 5 26 23 35 30 34 34 30 31 29 30 31 31
153 161 166 164 165 171 184 181 146 168 183 198 225 202 218 168 207 93 24 325 60 157 73 4 42 313 1 359 8 351 347 337 285 91 122 88 300 48 207 248 255 252 210 200 224 182 172 187 200 194 211 225 159 153 129 137 166 156 156 181 188 202 238 266 286 305 356 21 23 23 27 27 46 53 53 53 51 48 40 33 25 24 27 23 28
156 158 162 172 166 173 178 180 176 198 175 197 211 204 215 181 187 164 217 300 343 66 201 286 313 282 163 123 33 355 2 358 7 16 11 128 186 307 262 183 171 249 179 185 212 203 183 175 187 202 212 184 163 156 151 154 156 151 177 187 199 187 246 275 295 317 31 44 36 41 63 67 69 66 66 65 62 55 44 29 20 17 20 21 28
161 158 161 163 169 171 176 185 187 196 209 195 233 218 203 179 176 183 206 169 199 333 346 291 312 333 350 118 225 202 212 105 274 298 165 69 32 315 302 3 215 97 84 150 164 204 136 136 155 166 174 171 165 156 154 150 175 172 172 188 202 179 222 270 293 356 74 67 46 67 84 83 75 75 76 71 62 51 44 27 16 15 19 23 28
163 161 161 171 170 183 182 170 194 200 201 201 222 248 219 172 184 183 176 187 208 321 322 314 290 288 297 258 251 247 261 256 239 180 205 195 166 246 353 322 333 131 257 285 88 211 112 125 146 157 172 158 169 158 161 173 166 168 165 186 199 181 208 254 250 204 216 120 93 88 89 83 79 78 75 68 55 49 34 21 17 18 25 25 27
180 173 185 180 178 183 195 176 191 207 201 201 195 202 161 183 173 164 183 174 206 210 283 260 243 236 259 267 256 293 292 273 286 239 201 147 143 122 310 28 121 327 316 65 197 4 121 142 163 163 155 162 157 138 175 164 168 181 175 185 199 176 193 203 205 195 187 129 122 113 106 105 101 91 81 63 51 37 22 16 19 24 28 28 25
186 181 197 184 179 186 187 186 187 199 194 191 195 228 117 153 158 170 197 206 201 202 221 265 291 259 227 275 278 238 272 317 266 286 257 106 46 195 156 329 55 3 298 340 301 80 328 201 196 148 141 164 181 164 157 184 181 197 184 181 189 176 185 200 207 187 183 147 136 122 116 114 112 101 83 63 41 30 19 15 20 26 29 28 24
183 190 200 172 181 168 177 178 188 188 182 169 185 201 130 113 105 173 173 189 198 199 222 255 279 282 299 273 284 351 326 11 348 13 50 89 142 152 117 49 348 18 359 320 329 174 188 274 283 128 171 156 198 190 177 195 196 189 180 172 173 181 183 194 200 197 179 159 154 142 134 127 119 103 80 43 20 17 18 17 20 24 29 26 23
194 185 192 169 172 177 169 180 184 177 179 182 196 178 161 153 191 125 193 176 206 183 210 237 264 268 257 298 340 312 326 356 21 330 183 133 105 82 99 103 106 338 338 347 346 312 343 114 327 281 208 196 218 228 176 196 196 193 180 164 174 181 198 188 200 191 169 156 158 150 148 139 131 130 114 46 11 10 15 20 18 22 28 24 22
201 194 163 173 165 167 182 170 177 165 174 196 196 178 164 169 181 192 224 250 193 221 229 252 270 281 279 261 263 282 298 340 336 33 326 69 86 89 110 132 148 108 335 340 297 289 321 4 105 282 265 223 231 241 201 202 199 176 175 174 179 186 194 192 202 191 160 160 155 157 154 148 147 140 129 96 21 1 14 23 20 21 25 22 21
190 181 145 163 171 168 174 177 176 174 182 191 199 181 183 189 195 202 212 202 206 227 218 248 273 284 279 275 252 244 281 307 279 332 104 106 78 86 91 144 135 137 172 106 288 246 258 306 131 263 303 274 259 271 228 200 216 194 172 175 185 196 187 194 200 189 164 162 161 160 162 158 151 141 131 141 72 1 20 32 28 22 25 20 21
179 173 177 154 159 173 177 181 183 183 185 187 195 192 186 203 207 208 224 209 188 194 230 237 266 271 271 271 260 235 259 274 316 346 297 166 147 121 70 98 103 130 138 125 5 288 161 22 304 306 318 280 254 264 223 202 202 209 164 179 194 196 187 198 201 192 165 161 162 166 166 163 155 151 158 157 163 133 29 54 43 24 27 23 23
182 181 178 177 167 176 177 175 184 190 189 191 190 187 186 195 213 205 219 206 196 198 237 235 236 251 256 270 261 239 256 356 335 16 273 285 196 176 159 147 180 165 130 129 169 268 283 243 267 294 264 304 308 140 197 225 224 220 176 187 193 176 175 197 207 196 169 167 168 172 176 174 170 172 174 177 180 223 162 96 64 32 29 29 27
185 175 181 177 172 177 181 198 181 188 198 199 190 187 179 195 221 219 218 203 203 224 227 261 272 256 239 235 251 255 253 340 308 316 317 238 254 205 180 156 243 255 160 172 212 278 301 259 204 278 310 331 320 258 304 290 222 221 235 170 163 179 186 191 194 198 182 170 175 180 185 184 185 184 184 182 189 208 217 130 98 37 28 36 30
182 173 178 174 177 172 184 195 213 196 191 200 202 184 188 190 211 223 218 203 210 212 212 229 257 266 254 225 231 238 225 232 271 295 288 276 229 222 207 212 213 238 198 171 211 219 274 313 320 316 311 315 312 309 346 297 269 242 241 193 189 187 191 180 190 200 194 179 179 187 190 192 196 198 191 191 195 203 214 170 132 307 331 41 37
191 180 176 178 173 180 185 187 205 209 197 194 202 187 192 192 200 217 228 198 197 213 215 220 229 247 262 248 243 226 215 221 243 249 269 280 237 231 254 233 224 229 216 190 187 229 246 266 257 287 290 327 306 298 311 282 279 253 252 247 191 195 202 190 190 194 192 188 186 191 196 196 203 207 198 195 198 200 202 192 202 211 264 268 88
191 193 185 186 173 183 191 191 199 205 197 198 199 192 190 193 197 207 223 226 210 204 207 212 218 227 238 246 244 221 212 219 230 232 245 252 271 241 211 233 227 236 240 206 198 212 221 237 286 234 262 304 303 299 295 304 304 303 278 269 260 199 203 197 192 190 189 190 192 195 197 201 206 211 206 200 198 196 198 191 215 216 230 243 156
189 186 191 188 190 180 194 198 199 205 196 197 200 202 196 195 197 203 214 222 220 219 216 212 215 215 226 233 237 227 215 219 229 225 223 235 249 263 268 234 211 223 216 202 209 198 217 242 266 260 246 265 257 283 284 292 299 300 300 277 261 263 201 210 194 185 174 191 192 197 201 205 209 213 210 206 198 197 201 204 218 234 224 235 199
201 192 182 191 192 195 193 198 196 202 201 194 200 206 204 195 202 206 208 218 221 215 220 220 220 214 218 225 229 224 223 216 224 220 218 221 228 241 255 268 258 244 249 249 209 192 199 227 225 279 293 250 299 273 277 267 275 283 284 288 305 294 268 157 196 137 154 178 173 196 213 214 215 216 213 211 204 199 203 204 214 231 234 231 224
211 201 197 188 191 193 198 193 196 195 200 201 199 204 209 206 200 205 212 213 223 226 216 218 221 223 221 222 223 223 223 222 221 217 215 222 224 230 230 233 243 246 250 251 257 262 252 251 252 224 251 256 232 275 276 262 254 241 252 283 289 279 275 188 188 201 188 206 221 210 207 202 202 206 214 215 209 206 206 213 213 221 232 234 228
203 211 206 200 189 191 196 198 201 195 192 200 204 203 207 208 206 210 208 211 217 224 231 228 225 224 224 226 226 223 224 225 220 222 209 217 215 228 226 216 225 234 242 240 235 227 237 248 243 256 250 253 275 249 272 304 306 310 262 229 252 268 275 250 183 191 197 194 205 207 210 211 221 219 222 226 224 214 212 218 220 219 227 229 229
198 206 214 194 195 194 195 196 200 200 198 200 199 202 207 214 211 211 216 217 213 219 223 226 227 229 232 232 232 229 223 222 221 219 215 210 206 217 226 212 218 217 231 241 238 230 230 221 248 246 250 258 254 256 284 278 269 262 269 219 247 253 255 279 273 203 180 188 214 195 205 201 199 206 203 225 227 215 223 221 225 223 225 227 226
304 239 213 202 190 196 195 197 197 199 204 204 202 202 201 205 214 221 221 222 223 220 218 225 229 227 229 231 234 230 228 228 226 225 223 221 217 212 213 206 212 213 218 224 228 227 232 241 245 242 251 251 250 243 249 248 251 271 285 276 259 265 299 279 287 261 186 178 169 208 225 191 192 192 197 228 223 207 212 215 221 213 219 217 219
350 40 8 298 231 194 197 196 198 202 205 207 201 200 204 206 207 216 225 232 231 228 225 220 226 229 233 230 232 240 243 244 235 229 230 228 228 226 222 212 204 201 211 215 221 216 217 228 235 233 236 251 253 244 238 247 250 246 251 256 243 249 247 249 271 308 268 171 201 199 234 194 174 198 210 225 219 203 208 219 215 212 215 213 215
177 311 355 4 336 305 234 204 201 205 207 207 198 199 203 206 209 215 219 227 229 230 233 231 228 229 232 234 235 234 235 238 248 235 228 230 230 231 231 226 217 209 204 199 209 215 215 225 229 229 229 237 246 239 249 247 257 266 252 217 209 207 226 224 221 216 251 200 222 223 271 180 186 202 213 226 219 205 208 211 207 209 211 213 213
179 199 220 235 271 299 301 260 219 208 212 207 201 199 202 205 209 211 222 220 224 228 229 231 233 232 231 236 244 245 248 247 245 246 240 243 237 234 231 231 228 220 215 211 204 206 201 210 222 235 225 234 244 245 228 224 203 227 260 270 253 224 208 214 229 247 278 224 215 258 266 221 174 210 228 235 218 209 210 209 206 206 206 210 210
210 214 251 254 247 249 250 268 257 233 215 209 205 205 205 207 209 208 219 220 222 226 226 227 230 229 228 230 235 242 243 244 244 249 246 229 232 238 246 248 247 243 236 230 229 227 216 213 212 229 236 215 235 240 236 227 239 250 247 254 253 264 258 245 236 230 256 172 202 202 281 271 195 211 233 240 216 211 205 202 198 201 201 204 207
240 234 231 225 233 249 266 273 284 257 231 206 205 209 212 212 214 208 219 222 224 226 227 226 227 227 227 228 230 235 236 235 234 234 240 242 234 234 233 234 234 237 237 236 229 225 225 226 224 230 240 229 233 241 243 229 227 230 221 226 226 227 232 256 307 261 273 229 175 141 253 274 249 226 254 239 210 216 196 190 192 195 195 199 203
252 243 269 278 285 286 276 274 278 292 304 332 39 243 241 233 224 215 222 226 227 229 230 228 226 227 227 226 228 233 235 235 237 234 234 234 233 231 230 234 236 235 236 231 228 223 222 220 223 230 236 239 237 240 242 241 243 249 259 291 326 295 285 283 266 272 257 249 188 186 244 267 258 235 260 189 170 208 189 183 195 190 192 195 200
258 242 238 237 227 239 256 251 239 266 288 294 306 65 172 251 275 270 262 245 235 236 235 232 231 229 226 221 222 226 231 234 235 233 235 233 234 231 232 235 235 235 239 239 231 228 227 227 228 230 236 241 245 246 247 247 244 245 265 288 267 258 265 268 269 269 263 256 228 198 212 258 261 246 268 168 192 196 206 203 187 196 192 197 201
260 255 257 264 256 248 251 254 241 236 242 345 23 30 107 143 172 215 243 260 263 245 239 237 235 236 235 233 226 227 232 236 230 227 230 225 231 232 231 235 240 243 245 239 233 227 228 230 232 233 236 240 247 254 255 253 251 242 219 246 247 230 251 238 261 252 276 272 245 179 189 234 252 228 252 17 46 244 202 201 182 185 192 210 215
256 252 256 260 261 252 246 252 246 215 134 167 196 227 232 200 164 177 192 209 240 250 249 245 237 237 240 242 241 238 235 240 240 234 230 219 227 230 229 232 239 241 240 233 230 231 229 235 248 249 260 255 250 245 246 245 243 232 216 235 245 235 249 250 252 278 288 268 238 167 231 263 259 257 182 104 288 258 180 178 181 186 191 197 207